Location: Unspecified
(0.0000°N, 0.0000°E)
Time: 08:12:34
(UTC+00:00)

ATLAS 5 CENTAUR DEB - Pass Details

Date: 17 December 2025
Orbit: 9604 x 35045 km, 12.6° (Epoch: 17 August)

Event Time Altitude Azimuth Distance (km) Brightness Sun altitude
Rises 19:31:14 0° 258° (WSW) 14,655 ? -21.7°
Reaches altitude 10° 19:40:34 10° 255° (WSW) 13,721 ? -23.8°
Maximum altitude 04:54:17 73° 26° (NNE) 30,430 ? -14.3°
Drops below altitude 10° 08:23:32 10° 95° (E) 14,988 ? 33.3°
Sets 08:33:29 0° 97° (E) 15,377 ? 35.5°
